time_stamp(utc),avg(mph),gust(mph),direction(deg),12m_air_temp(f),sonic_u(cm/s),sonic_v(cm/s),sonic_w(cm/s),pressure,2m_air_temp(f),pyranometer(W/m^2)
"2020-09-17 00:03:00+00",7.1,8.1,,67.9,-78,-293,-7,1020.19,66.8,0
"2020-09-17 00:08:00+00",7.1,8.1,,67.9,-74,-290,-5,1020.2,66.8,0
"2020-09-17 00:13:00+00",7.4,8.4,,68,-61,-307,-13,1020.18,66.8,0
"2020-09-17 00:18:00+00",7.3,9.3,,68.1,-62,-308,-14,1020.22,66.9,0
"2020-09-17 00:23:00+00",7.7,9.7,,68,-71,-328,-8,1020.36,66.9,0
"2020-09-17 00:28:00+00",6.7,7.7,,68.2,-62,-275,-7,1020.34,67,0
"2020-09-17 00:33:00+00",6.0,8.0,,68.3,-56,-245,11,1020.4,67.1,0
"2020-09-17 00:38:00+00",7.3,9.3,,68.4,-55,-298,-7,1020.38,67.2,0
"2020-09-17 00:43:00+00",6.3,8.3,,68.4,-55,-259,1,1020.38,67.3,0
"2020-09-17 00:48:00+00",6.3,8.3,,68.4,-76,-261,-1,1020.46,67.3,0
"2020-09-17 00:53:00+00",7.4,9.4,,68.5,-72,-299,2,1020.54,67.3,0
"2020-09-17 00:58:00+00",7.2,8.2,,68.6,-80,-295,0,1020.56,67.3,0
"2020-09-17 01:03:00+00",7.1,9.1,,68.6,-54,-293,-9,1020.53,67.4,0
"2020-09-17 01:08:00+00",8.2,10.2,,68.6,-38,-338,-13,1020.43,67.6,0
"2020-09-17 01:13:00+00",7.4,8.4,,68.6,-61,-306,-7,1020.41,67.6,0
"2020-09-17 01:18:00+00",7.1,8.1,,68.6,-49,-297,-11,1020.3,67.6,0
"2020-09-17 01:23:00+00",6.2,8.2,,68.6,-47,-265,0,1020.3,67.5,0
"2020-09-17 01:28:00+00",7.0,8.0,,68.6,-72,-283,-8,1020.28,67.5,0
"2020-09-17 01:33:00+00",6.2,8.2,,68.5,-62,-262,-3,1020.24,67.4,0
"2020-09-17 01:38:00+00",7.3,9.3,,68.6,-56,-299,-12,1020.07,67.4,0
"2020-09-17 01:43:00+00",7.1,8.1,,68.6,-52,-286,-5,1020.06,67.4,0
"2020-09-17 01:48:00+00",7.6,8.6,,68.6,-49,-326,-13,1020.01,67.5,0
"2020-09-17 01:53:00+00",6.7,7.7,,68.5,-52,-285,-5,1019.99,67.4,0
"2020-09-17 01:58:00+00",7.3,8.3,,68.6,-71,-300,-5,1020.07,67.3,0
"2020-09-17 02:03:00+00",7.2,9.2,,68.5,-75,-313,-6,1020.08,67.2,0
"2020-09-17 02:08:00+00",6.5,7.5,,68.4,-59,-269,-5,1020,67.1,0
"2020-09-17 02:13:00+00",7.0,8.0,,68.5,-74,-289,-5,1020.05,67.1,0
"2020-09-17 02:18:00+00",7.4,9.4,,68.6,-75,-305,-5,1020.05,67,0
"2020-09-17 02:23:00+00",7.4,8.4,,68.5,-80,-304,-9,1020.04,67,0
"2020-09-17 02:28:00+00",6.4,8.4,,68.4,-65,-265,-4,1019.94,67,0
"2020-09-17 02:33:00+00",7.0,8.0,,68.4,-80,-287,-6,1020.06,66.9,0
"2020-09-17 02:38:00+00",7.3,8.3,,68.5,-105,-292,0,1020.09,66.9,0
"2020-09-17 02:43:00+00",8.0,10.0,,68.6,-132,-322,-4,1020.22,66.9,0
"2020-09-17 02:48:00+00",8.1,9.1,,68.8,-160,-320,0,1020.16,66.8,0
"2020-09-17 02:53:00+00",7.5,8.5,,68.8,-151,-293,-2,1020.17,66.9,0
"2020-09-17 02:58:00+00",6.6,6.6,,68.7,-109,-242,-2,1020.18,66.8,0
"2020-09-17 03:03:00+00",6.2,6.2,,68.7,-117,-242,-1,1020.02,66.7,0
"2020-09-17 03:08:00+00",6.5,7.5,,68.8,-104,-257,-5,1019.98,66.6,0
"2020-09-17 03:13:00+00",7.2,8.2,,68.8,-121,-291,-8,1019.89,66.6,0
"2020-09-17 03:18:00+00",7.8,8.8,,68.8,-137,-309,-6,1019.91,66.5,0
"2020-09-17 03:23:00+00",8.2,9.2,,68.9,-106,-329,-12,1019.84,66.6,0
"2020-09-17 03:28:00+00",7.6,8.6,,68.9,-95,-306,-5,1019.82,66.6,0
"2020-09-17 03:33:00+00",7.1,8.1,,68.8,-113,-283,-3,1019.84,66.7,0
"2020-09-17 03:38:00+00",6.6,7.6,,68.8,-103,-267,-6,1019.9,66.7,0
"2020-09-17 03:43:00+00",6.9,7.9,,68.8,-96,-281,-2,1019.77,66.7,0
"2020-09-17 03:48:00+00",7.6,8.6,,68.6,-100,-311,-6,1019.68,66.7,0
"2020-09-17 03:53:00+00",7.4,8.4,,68.6,-110,-296,-4,1019.57,66.7,0
"2020-09-17 03:58:00+00",7.6,8.6,,68.6,-124,-301,-3,1019.62,66.7,0
"2020-09-17 04:03:00+00",7.7,8.7,,68.7,-147,-312,-3,1019.63,66.6,0
"2020-09-17 04:08:00+00",7.6,8.6,,68.7,-134,-307,-4,1019.61,66.6,0
"2020-09-17 04:13:00+00",7.7,8.7,,68.7,-159,-301,-3,1019.51,66.7,0
"2020-09-17 04:18:00+00",8.1,9.1,,68.9,-218,-301,-5,1019.48,66.8,0
"2020-09-17 04:23:00+00",8.7,10.7,,69,-230,-320,1,1019.48,67,0
"2020-09-17 04:28:00+00",8.4,9.4,,69.1,-190,-327,1,1019.46,67.2,0
"2020-09-17 04:33:00+00",8.3,9.3,,69,-198,-323,-4,1019.41,67.4,0
"2020-09-17 04:38:00+00",8.6,9.6,,69.1,-216,-322,0,1019.33,67.5,0
"2020-09-17 04:43:00+00",7.6,8.6,,69,-164,-297,-1,1019.26,67.5,0
"2020-09-17 04:48:00+00",7.8,8.8,,68.9,-174,-308,2,1019.25,67.5,0
"2020-09-17 04:53:00+00",8.4,9.4,,69.1,-184,-327,-3,1019.19,67.5,0
"2020-09-17 04:58:00+00",6.8,7.8,,69,-148,-270,5,1019.15,67.4,0
"2020-09-17 05:03:00+00",8.3,9.3,,68.9,-150,-333,-3,1019.12,67.3,0
"2020-09-17 05:08:00+00",8.6,10.6,,69.1,-142,-348,-3,1019.04,67.3,0
"2020-09-17 05:13:00+00",8.2,9.2,,69,-112,-337,-11,1018.95,67.3,0
"2020-09-17 05:18:00+00",7.8,8.8,,68.8,-91,-329,-12,1018.8,67.3,0
"2020-09-17 05:23:00+00",7.8,9.8,,68.6,-89,-328,-10,1018.77,67.3,0
"2020-09-17 05:28:00+00",7.7,8.7,,68.4,-86,-323,-16,1018.75,67.3,0
"2020-09-17 05:33:00+00",7.2,9.2,,68.4,-80,-305,0,1018.71,67.3,0
"2020-09-17 05:38:00+00",7.3,9.3,,68.5,-73,-307,-6,1018.58,67.3,0
"2020-09-17 05:43:00+00",7.7,8.7,,68.5,-88,-316,-9,1018.54,67.3,0
"2020-09-17 05:48:00+00",7.6,8.6,,68.7,-106,-309,-7,1018.52,67.3,0
"2020-09-17 05:53:00+00",7.4,8.4,,68.8,-142,-290,-1,1018.55,67.4,0
"2020-09-17 05:58:00+00",6.9,7.9,,69,-148,-264,-3,1018.56,67.4,0
"2020-09-17 06:03:00+00",6.3,7.3,,69,-148,-240,-1,1018.52,67.3,0
"2020-09-17 06:08:00+00",5.4,5.4,,68.9,-153,-185,1,1018.49,67.3,0
"2020-09-17 06:13:00+00",5.8,6.8,,69,-150,-213,1,1018.64,67.1,0
"2020-09-17 06:18:00+00",6.5,7.5,,69,-162,-242,-1,1018.65,67,0
"2020-09-17 06:23:00+00",6.1,6.1,,68.9,-140,-222,-2,1018.61,66.9,0
"2020-09-17 06:28:00+00",6.1,6.1,,68.9,-138,-230,0,1018.42,66.9,0
"2020-09-17 06:33:00+00",7.2,7.2,,68.9,-164,-279,-3,1018.32,66.8,0
"2020-09-17 06:38:00+00",6.8,7.8,,68.8,-155,-261,-1,1018.29,66.7,0
"2020-09-17 06:43:00+00",6.0,7.0,,68.7,-132,-228,-1,1018.23,66.7,0
"2020-09-17 06:48:00+00",7.0,7.0,,68.6,-200,-223,3,1018.27,66.6,0
"2020-09-17 06:53:00+00",5.9,6.9,,68.5,-167,-192,4,1018.29,66.6,0
"2020-09-17 06:58:00+00",5.4,6.4,,68.4,-156,-178,3,1018.23,66.6,0
"2020-09-17 07:03:00+00",5.6,6.6,,68.4,-161,-194,2,1018.15,66.6,0
"2020-09-17 07:08:00+00",5.8,6.8,,68.4,-155,-212,4,1018.07,66.6,0
"2020-09-17 07:13:00+00",6.4,7.4,,68.5,-134,-253,-2,1018.07,66.6,0
"2020-09-17 07:18:00+00",6.3,7.3,,68.6,-138,-245,-1,1018.05,66.6,0
"2020-09-17 07:23:00+00",5.0,6.0,,68.5,-101,-195,-1,1017.98,66.5,0
"2020-09-17 07:28:00+00",5.2,6.2,,68.5,-110,-199,-1,1017.9,66.4,0
"2020-09-17 07:33:00+00",4.6,5.6,,68.4,-117,-166,0,1017.89,66.4,0
"2020-09-17 07:38:00+00",3.5,3.5,,68.2,-98,-116,-1,1017.84,66.4,0
"2020-09-17 07:43:00+00",3.6,3.6,,68.2,-99,-104,-4,1017.74,66.3,0
"2020-09-17 07:48:00+00",4.0,5.0,,68.2,-95,-150,-4,1017.73,66.1,0
"2020-09-17 07:53:00+00",4.4,4.4,,68.5,-95,-165,-3,1017.76,66.2,0
"2020-09-17 07:58:00+00",5.0,6.0,,68.7,-86,-194,-3,1017.84,66.4,0
"2020-09-17 08:03:00+00",5.6,6.6,,69,-96,-220,-6,1017.84,66.6,0
"2020-09-17 08:08:00+00",5.9,6.9,,69.1,-117,-232,-4,1017.68,66.6,0
"2020-09-17 08:13:00+00",6.5,7.5,,69.2,-123,-251,-5,1017.72,66.6,0
"2020-09-17 08:18:00+00",6.2,6.2,,69.4,-120,-241,-5,1017.59,66.6,0
"2020-09-17 08:23:00+00",6.0,7.0,,69.5,-117,-233,-5,1017.62,66.8,0
"2020-09-17 08:28:00+00",6.2,6.2,,69.5,-93,-245,-5,1017.43,66.8,0
"2020-09-17 08:33:00+00",6.3,7.3,,69.4,-77,-261,-6,1017.39,67,0
"2020-09-17 08:38:00+00",6.5,7.5,,69.4,-78,-265,-9,1017.36,67.2,0
"2020-09-17 08:43:00+00",7.1,7.1,,69.6,-108,-285,-7,1017.35,67.3,0
"2020-09-17 08:48:00+00",7.3,8.3,,69.7,-96,-295,-7,1017.28,67.4,0
"2020-09-17 08:53:00+00",6.6,7.6,,69.8,-95,-267,-7,1017.25,67.5,0
"2020-09-17 08:58:00+00",6.8,6.8,,69.8,-100,-270,-8,1017.29,67.6,0
"2020-09-17 09:03:00+00",5.6,6.6,,69.8,-122,-213,-1,1017.2,67.5,0
"2020-09-17 09:08:00+00",4.4,4.4,,69.4,-107,-158,0,1017.22,67.4,0
"2020-09-17 09:13:00+00",4.5,5.5,,69.4,-98,-171,-4,1017.15,67.3,0
"2020-09-17 09:18:00+00",4.1,5.1,,69.4,-86,-151,1,1017.08,67.3,0
"2020-09-17 09:23:00+00",3.8,3.8,,69.4,-83,-137,-4,1017.07,67.2,0
"2020-09-17 09:28:00+00",3.5,4.5,,69.3,-101,-115,-5,1017.1,67.2,0
"2020-09-17 09:33:00+00",2.8,2.8,,69.1,-83,-69,-3,1017.08,67.1,0
"2020-09-17 09:38:00+00",3.1,4.1,,68.8,-126,28,-6,1017.11,67,0
"2020-09-17 09:43:00+00",2.4,2.4,,68.9,-91,-52,-4,1017.11,67.1,0
"2020-09-17 09:48:00+00",3.1,4.1,,69,-126,-1,1,1017.04,67.2,0
"2020-09-17 09:53:00+00",3.2,4.2,,69.1,-125,-36,-5,1017.08,67.2,0
"2020-09-17 09:58:00+00",3.3,4.3,,69.2,-129,-37,-3,1017.13,67.1,0
"2020-09-17 10:03:00+00",2.2,2.2,,69.1,-84,0,-5,1017.13,67.1,0
"2020-09-17 10:08:00+00",2.5,2.5,,69.1,-87,-56,0,1017.06,67.1,0
"2020-09-17 10:13:00+00",2.4,2.4,,69.2,-53,-83,-2,1017.11,67.1,0
"2020-09-17 10:18:00+00",2.6,2.6,,69.2,-74,-86,-2,1017.14,67.2,0
"2020-09-17 10:23:00+00",2.4,2.4,,69,-65,69,2,1017.1,67.2,0
"2020-09-17 10:28:00+00",2.0,2.0,,68.3,-35,65,-2,1017.08,66.9,0
"2020-09-17 10:33:00+00",1.6,1.6,,68.1,-50,32,-4,1017.08,66.4,0
"2020-09-17 10:38:00+00",0.9,0.9,,68.3,-28,-19,-4,1017.14,66,0
"2020-09-17 10:43:00+00",3.4,3.4,,67.8,-42,132,-3,1017.14,65.8,0
"2020-09-17 10:48:00+00",2.3,2.3,,67.5,-46,78,-3,1017.06,65.5,0
"2020-09-17 10:53:00+00",1.2,1.2,,67.6,-21,40,-1,1017.13,65.2,0
"2020-09-17 10:58:00+00",3.2,4.2,,67.3,8,123,-10,1017.02,65,0
"2020-09-17 11:03:00+00",1.8,1.8,,67.4,4,68,-2,1017.09,65,0
"2020-09-17 11:08:00+00",2.1,3.1,,67.4,20,77,-3,1017.14,65.2,0
"2020-09-17 11:13:00+00",2.6,2.6,,67.5,22,97,0,1017.2,65.1,0
"2020-09-17 11:18:00+00",1.6,1.6,,67.5,23,53,-1,1017.19,65,0
"2020-09-17 11:23:00+00",1.5,1.5,,67.6,43,34,-3,1017.3,65.2,0
"2020-09-17 11:28:00+00",3.3,4.3,,67.5,82,105,-11,1017.26,65.4,0
"2020-09-17 11:33:00+00",3.6,4.6,,67.3,81,120,-7,1017.33,65.7,0
"2020-09-17 11:38:00+00",3.4,4.4,,67.4,50,132,0,1017.36,65.8,0
"2020-09-17 11:43:00+00",2.8,3.8,,67.4,48,96,0,1017.37,65.9,0
"2020-09-17 11:48:00+00",1.9,2.9,,67.7,54,50,-1,1017.38,66.2,0
"2020-09-17 11:53:00+00",2.4,2.4,,67.7,37,85,-4,1017.39,66.5,0
"2020-09-17 11:58:00+00",2.1,2.1,,67.9,21,71,3,1017.4,66.8,0
"2020-09-17 12:03:00+00",2.0,2.0,,67.9,43,58,-6,1017.39,67,0
"2020-09-17 12:08:00+00",2.1,2.1,,68,11,81,-5,1017.41,67.3,0
"2020-09-17 12:13:00+00",1.8,2.8,,68.1,12,56,8,1017.23,67.6,0
"2020-09-17 12:18:00+00",2.4,2.4,,68.2,2,93,2,1017.36,68,0
"2020-09-17 12:23:00+00",2.4,2.4,,68.2,-1,91,-3,1017.37,68.2,0
"2020-09-17 12:28:00+00",2.6,2.6,,68.4,-15,91,7,1017.32,68.6,0
"2020-09-17 12:33:00+00",2.0,2.0,,68.6,-9,74,-8,1017.29,68.8,0
"2020-09-17 12:38:00+00",2.7,2.7,,68.7,-55,93,1,1017.33,69,0
"2020-09-17 12:43:00+00",3.2,4.2,,68.7,-49,123,-1,1017.33,69.1,0
"2020-09-17 12:48:00+00",3.8,3.8,,68.7,-50,153,-2,1017.38,69.4,0
"2020-09-17 12:53:00+00",3.0,3.0,,68.7,-34,110,10,1017.33,69.6,0
"2020-09-17 12:58:00+00",2.5,3.5,,68.8,3,95,-2,1017.25,69.8,0
"2020-09-17 13:03:00+00",2.4,2.4,,69,-12,95,1,1017.26,70.1,0
"2020-09-17 13:08:00+00",2.2,3.2,,69.3,-36,78,-1,1017.21,70.4,0
"2020-09-17 13:13:00+00",2.5,2.5,,69.3,-51,79,-5,1017.23,70.5,0
"2020-09-17 13:18:00+00",2.4,3.4,,69.4,-6,98,9,1017.28,70.7,0
"2020-09-17 13:23:00+00",2.4,2.4,,69.6,-57,71,6,1017.29,71,0
"2020-09-17 13:28:00+00",2.1,2.1,,69.7,-27,75,-13,1017.39,71.3,0
"2020-09-17 13:33:00+00",2.3,3.3,,69.9,-72,52,8,1017.35,71.7,0
"2020-09-17 13:38:00+00",1.9,2.9,,70.1,-56,48,3,1017.36,72.1,0
"2020-09-17 13:43:00+00",1.5,1.5,,70.3,-45,34,4,1017.37,72.5,0
"2020-09-17 13:48:00+00",1.3,1.3,,70.5,-47,2,-4,1017.39,73,0
"2020-09-17 13:53:00+00",1.7,2.7,,70.7,-43,35,12,1017.33,73.5,0
"2020-09-17 13:58:00+00",1.5,1.5,,71,-20,50,-6,1017.34,73.8,0
"2020-09-17 14:03:00+00",1.9,2.9,,71.2,-40,61,-14,1017.21,74,0
"2020-09-17 14:08:00+00",0.5,1.5,,71.7,-24,-2,0,1017.08,74.5,0
"2020-09-17 14:13:00+00",1.4,2.4,,72.2,-16,-3,36,1017.05,75,0
"2020-09-17 14:18:00+00",0.0,0.0,,72.9,-22,-9,2,1017.01,75.5,0
"2020-09-17 14:23:00+00",2.2,3.2,,73.3,-71,-62,4,1017.06,76.1,0
"2020-09-17 14:28:00+00",2.4,3.4,,73.3,-50,-84,-7,1017.06,76.8,0
"2020-09-17 14:33:00+00",6.1,6.1,,73.1,-145,-240,6,1017.17,76.5,0
"2020-09-17 14:38:00+00",5.3,7.3,,72.8,-116,-197,-10,1017.2,75.9,0
"2020-09-17 14:43:00+00",4.4,5.4,,72.8,-54,-179,6,1017.25,75.5,0
"2020-09-17 14:48:00+00",3.8,3.8,,72.7,-97,-138,8,1017.26,75.3,0
"2020-09-17 14:53:00+00",3.8,3.8,,72.5,-95,-139,7,1017.24,75.2,0
"2020-09-17 14:58:00+00",3.9,4.9,,72.5,-80,-138,16,1017.3,75.1,0
"2020-09-17 15:03:00+00",7.0,8.0,,72.8,-65,-298,-4,1017.17,74.6,0
"2020-09-17 15:08:00+00",6.4,8.4,,73,-108,-263,1,1017.13,74.5,0
"2020-09-17 15:13:00+00",7.0,8.0,,73,-120,-281,-6,1017.15,74.5,0
"2020-09-17 15:18:00+00",8.6,9.6,,73.1,-157,-338,-16,1017.23,74.3,0
"2020-09-17 15:23:00+00",7.7,8.7,,73.2,-187,-294,1,1017.11,74.3,0
"2020-09-17 15:28:00+00",7.4,9.4,,73.5,-128,-301,15,1017.17,74.6,0
"2020-09-17 15:33:00+00",8.8,9.8,,73.9,-140,-353,3,1017.03,74.8,0
"2020-09-17 15:38:00+00",8.3,10.3,,73.9,-140,-342,22,1017.06,74.8,0
"2020-09-17 15:43:00+00",8.7,10.7,,74,-95,-353,-3,1017.01,74.8,0
"2020-09-17 15:48:00+00",10.7,12.7,,74,-138,-440,-8,1016.87,74.9,0
"2020-09-17 15:53:00+00",10.4,11.4,,74,-155,-417,1,1016.81,74.9,0
"2020-09-17 15:58:00+00",10.9,12.9,,74.1,-212,-441,1,1016.91,75.1,0
"2020-09-17 16:03:00+00",9.2,11.2,,74.2,-145,-385,24,1016.85,75.2,0
"2020-09-17 16:08:00+00",10.1,14.1,,74.3,-97,-431,-1,1016.72,75.2,0
"2020-09-17 16:13:00+00",9.8,11.8,,74.4,-80,-423,-6,1016.69,75.2,0
"2020-09-17 16:18:00+00",7.2,11.2,,74.6,-98,-311,14,1016.64,75.3,0
"2020-09-17 16:23:00+00",10.5,12.5,,74.5,-60,-439,-5,1016.57,75.4,0
"2020-09-17 16:28:00+00",10.1,13.1,,74.4,-100,-412,6,1016.5,75.4,0
"2020-09-17 16:33:00+00",12.9,14.9,,74.5,-156,-528,-13,1016.55,75.4,0
"2020-09-17 16:38:00+00",6.3,9.3,,74.6,-80,-263,24,1016.49,75.4,0
"2020-09-17 16:43:00+00",9.6,12.6,,74.8,-167,-391,0,1016.43,75.6,0
"2020-09-17 16:48:00+00",12.2,14.2,,74.5,-191,-495,-9,1016.42,75.5,0
"2020-09-17 16:53:00+00",10.7,12.7,,74.7,-174,-440,1,1016.41,75.6,0
"2020-09-17 16:58:00+00",8.6,10.6,,74.7,-176,-343,2,1016.46,75.7,0
"2020-09-17 17:03:00+00",10.3,12.3,,74.5,-228,-400,1,1016.5,75.7,0
"2020-09-17 17:08:00+00",6.4,9.4,,74.9,-56,-261,7,1016.49,75.9,0
"2020-09-17 17:13:00+00",11.6,15.6,,74.9,-114,-489,-9,1016.36,75.9,0
"2020-09-17 17:18:00+00",9.6,12.6,,74.9,-124,-401,2,1016.37,75.9,0
"2020-09-17 17:23:00+00",9.6,10.6,,74.8,-193,-386,-1,1016.26,76,0
"2020-09-17 17:28:00+00",6.4,8.4,,75.1,-76,-249,35,1016.22,76.3,0
"2020-09-17 17:33:00+00",9.3,10.3,,75.1,-97,-380,-13,1016.18,76.4,0
"2020-09-17 17:38:00+00",8.7,11.7,,75.2,-57,-365,-15,1016.17,76.4,0
"2020-09-17 17:43:00+00",9.9,11.9,,75.2,-79,-414,-14,1016.02,76.4,0
"2020-09-17 17:48:00+00",8.4,11.4,,75.3,25,-354,-4,1016.04,76.3,0
"2020-09-17 17:53:00+00",7.4,9.4,,75.2,-26,-321,27,1015.91,76.1,0
"2020-09-17 17:58:00+00",10.3,13.3,,75.1,-82,-438,11,1015.84,75.9,0
"2020-09-17 18:03:00+00",10.3,13.3,,74.9,-27,-425,-16,1015.82,75.5,0
"2020-09-17 18:08:00+00",7.9,10.9,,74.8,-15,-340,-1,1015.8,75.4,0
"2020-09-17 18:13:00+00",8.6,11.6,,74.7,-45,-363,-3,1015.74,75.4,0
"2020-09-17 18:18:00+00",10.6,12.6,,74.8,-91,-441,-15,1015.71,75.5,0
"2020-09-17 18:23:00+00",9.0,13.0,,74.9,-9,-366,-17,1015.6,75.5,0
"2020-09-17 18:28:00+00",9.7,11.7,,74.6,25,-419,-20,1015.48,75.4,0
"2020-09-17 18:33:00+00",9.9,13.9,,74.4,-7,-452,-16,1015.39,75.3,0
"2020-09-17 18:38:00+00",11.3,13.3,,74.3,-58,-474,-25,1015.45,75.1,0
"2020-09-17 18:43:00+00",10.3,12.3,,74.3,-100,-439,-6,1015.33,75,0
"2020-09-17 18:48:00+00",9.8,11.8,,74.4,-40,-415,-13,1015.37,75.2,0
"2020-09-17 18:53:00+00",10.6,15.6,,74.3,-35,-465,-27,1015.3,75,0
"2020-09-17 18:58:00+00",9.8,12.8,,74.2,-8,-391,-12,1015.28,74.9,0
"2020-09-17 19:03:00+00",8.2,12.2,,74.2,1,-371,-13,1015.22,74.9,0
"2020-09-17 19:08:00+00",7.8,13.8,,74.3,-56,-335,13,1015.17,75,0
"2020-09-17 19:13:00+00",10.2,13.2,,74.2,15,-444,-12,1015.08,75,0
"2020-09-17 19:18:00+00",11.5,13.5,,74.2,-178,-474,-11,1015.09,74.9,0
"2020-09-17 19:23:00+00",11.1,13.1,,74.2,-110,-465,-14,1015.05,74.9,0
"2020-09-17 19:28:00+00",10.4,13.4,,74.4,-106,-430,-12,1015.02,74.8,0
"2020-09-17 19:33:00+00",9.7,11.7,,74.3,-81,-423,-1,1014.99,74.8,0
"2020-09-17 19:38:00+00",9.5,11.5,,74.3,-45,-412,-12,1014.99,74.7,0
"2020-09-17 19:43:00+00",7.7,11.7,,74.2,-69,-310,21,1015,74.5,0
"2020-09-17 19:48:00+00",9.5,12.5,,74.1,-78,-393,-3,1014.88,74.4,0
"2020-09-17 19:53:00+00",8.2,11.2,,74,-36,-334,3,1014.83,74.2,0
"2020-09-17 19:58:00+00",9.6,11.6,,73.9,-59,-395,-6,1014.74,74.1,0
"2020-09-17 20:03:00+00",9.7,12.7,,74,-40,-424,0,1014.74,74,0
"2020-09-17 20:08:00+00",6.3,9.3,,73.9,-40,-250,8,1014.69,74,0
"2020-09-17 20:13:00+00",6.5,9.5,,73.9,-72,-266,18,1014.72,74,0
"2020-09-17 20:18:00+00",9.7,11.7,,73.8,-62,-399,-20,1014.7,73.9,0
"2020-09-17 20:23:00+00",9.6,12.6,,73.7,-71,-399,-11,1014.67,73.8,0
"2020-09-17 20:28:00+00",8.0,11.0,,73.7,-106,-339,7,1014.57,73.8,0
"2020-09-17 20:33:00+00",8.1,10.1,,73.6,-134,-332,21,1014.58,73.8,0
"2020-09-17 20:38:00+00",7.7,9.7,,73.6,-54,-320,-1,1014.62,73.7,0
"2020-09-17 20:43:00+00",9.0,12.0,,73.6,-38,-357,-7,1014.67,73.6,0
"2020-09-17 20:48:00+00",9.2,12.2,,73.5,-111,-382,-2,1014.58,73.6,0
"2020-09-17 20:53:00+00",7.9,9.9,,73.5,-100,-323,-2,1014.61,73.5,0
"2020-09-17 20:58:00+00",10.5,12.5,,73.5,-153,-433,-6,1014.68,73.5,0
"2020-09-17 21:03:00+00",10.6,12.6,,73.4,-136,-431,-6,1014.58,73.4,0
"2020-09-17 21:08:00+00",8.0,10.0,,73.4,-78,-334,-9,1014.54,73.4,0
"2020-09-17 21:13:00+00",9.0,12.0,,73.4,-79,-375,-9,1014.62,73.3,0
"2020-09-17 21:18:00+00",9.0,11.0,,73.3,-130,-370,-4,1014.51,73.2,0
"2020-09-17 21:23:00+00",11.4,14.4,,73.3,-119,-469,-10,1014.45,73.1,0
"2020-09-17 21:28:00+00",9.6,11.6,,73.2,-127,-389,-16,1014.48,73,0
"2020-09-17 21:33:00+00",8.4,12.4,,73.1,-99,-332,2,1014.44,72.9,0
"2020-09-17 21:38:00+00",9.1,11.1,,73,-113,-368,-7,1014.44,72.8,0
"2020-09-17 21:43:00+00",8.3,13.3,,73,-85,-357,-2,1014.48,72.8,0
"2020-09-17 21:48:00+00",7.6,9.6,,72.9,-73,-316,3,1014.38,72.7,0
"2020-09-17 21:53:00+00",8.8,9.8,,72.9,-114,-370,-3,1014.36,72.6,0
"2020-09-17 21:58:00+00",9.5,12.5,,72.9,-120,-384,1,1014.4,72.5,0
"2020-09-17 22:03:00+00",9.6,10.6,,72.8,-136,-395,-11,1014.35,72.5,0
"2020-09-17 22:08:00+00",11.4,14.4,,72.8,-135,-470,-2,1014.31,72.4,0
"2020-09-17 22:13:00+00",10.3,12.3,,72.7,-127,-434,-12,1014.29,72.3,0
"2020-09-17 22:18:00+00",14.1,17.1,,72.5,-223,-576,0,1014.34,72.1,0
"2020-09-17 22:23:00+00",15.9,18.9,,71.7,-302,-642,-10,1014.33,71.7,0
"2020-09-17 22:28:00+00",15.0,17.0,,71.3,-298,-594,-3,1014.32,71.3,0
"2020-09-17 22:33:00+00",12.7,14.7,,71,-219,-513,-3,1014.36,71,0
"2020-09-17 22:38:00+00",11.7,13.7,,70.9,-215,-465,6,1014.31,70.7,0
"2020-09-17 22:43:00+00",12.0,15.0,,70.7,-195,-508,-15,1014.31,70.5,0
"2020-09-17 22:48:00+00",10.1,12.1,,70.5,-220,-400,6,1014.38,70.3,0
"2020-09-17 22:53:00+00",10.8,12.8,,70.3,-241,-429,13,1014.39,70.1,0
"2020-09-17 22:58:00+00",10.4,12.4,,70.3,-214,-414,2,1014.35,69.9,0
"2020-09-17 23:03:00+00",10.2,12.2,,70.2,-156,-422,1,1014.18,69.8,0
"2020-09-17 23:08:00+00",13.4,16.4,,70.1,-146,-566,-21,1014.07,69.7,0
"2020-09-17 23:13:00+00",12.2,15.2,,70.1,-218,-501,0,1014.16,69.7,0
"2020-09-17 23:18:00+00",9.7,13.7,,70.2,-200,-383,6,1014.22,69.7,0
"2020-09-17 23:23:00+00",9.0,10.0,,70.1,-226,-347,11,1014.2,69.7,0
"2020-09-17 23:28:00+00",8.9,11.9,,70.1,-181,-355,3,1014.2,69.7,0
"2020-09-17 23:33:00+00",8.6,9.6,,70,-129,-349,1,1014.17,69.6,0
"2020-09-17 23:38:00+00",6.6,7.6,,70,-57,-272,11,1014.13,69.5,0
"2020-09-17 23:43:00+00",9.6,13.6,,70,-95,-417,-5,1014.12,69.5,0
"2020-09-17 23:48:00+00",8.2,11.2,,70,-104,-329,-2,1014.24,69.5,0
"2020-09-17 23:53:00+00",9.2,10.2,,70,-131,-383,-5,1014.21,69.5,0
"2020-09-17 23:58:00+00",8.5,11.5,,69.9,-86,-368,-1,1014.22,69.5,0
